[[{"header":{"parameterUnit":"m.s-1","parameterCategory":1,"la1":30.2991,"la2":30.254,"lo1":-89.0895,"lo2":-89.0444,"dy":0.0017,"dx":0.0017,"nx":28,"ny":28,"refTime":"2025-08-13T03:00:00:Z","depth":0,"parameterNumber":2,"parameterNumberName":"U-component_of_WINDS"},"data":[0,0,0,0,0,0,0,0,0,0,0,0,0,0,0,0,0,0,0,0,0,0,0,0,0,0,0,0,0,0,0,0,0,0,0,0,0,0,0,0,0,0,0,0,0,0,0,0,0,0,0,0,0,0,0,0,0,0,2.7819,2.782,0,2.7928,2.793,2.7931,2.7957,2.7956,2.7955,2.7954,2.8069,2.8073,2.8077,0,0,0,0,0,0,0,0,0,0,0,0,0,2.7634,2.7637,2.7819,2.782,2.7822,2.7928,2.793,2.7931,2.7957,2.7956,2.7955,2.7954,2.8068,2.8073,2.8077,0,0,0,0,0,0,0,0,0,0,0,0,0,2.7726,2.7638,2.7819,2.7847,2.7851,2.7928,2.793,2.7932,2.7957,2.7956,2.7955,2.7954,2.8067,2.8072,2.8078,2.8135,0,0,2.8095,2.8097,0,0,0,0,0,0,0,0,2.7721,2.7733,2.7842,2.7845,2.785,2.7928,2.7907,2.8,2.7957,2.7917,2.7954,2.7953,2.8023,2.8032,2.8056,2.8141,2.8146,2.8096,2.8099,2.8101,2.8103,0,0,0,0,0,0,0,2.7714,2.7728,2.7863,2.7843,2.7848,2.7855,2.7867,2.7924,2.7975,2.792,2.7922,2.7935,2.8025,2.805,2.8058,2.8147,2.8095,2.81,2.8104,2.8106,2.8284,2.8286,0,0,0,0,0,0,2.7703,2.7723,2.7859,2.7866,2.7781,2.7859,2.7872,2.7904,2.7975,2.7984,2.7936,2.7935,2.8041,2.8052,2.8063,2.8135,2.8101,2.8107,2.811,2.8283,2.8285,2.8286,0,0,0,0,0,0,2.7698,2.7714,2.7855,2.7795,2.7813,2.7864,2.7899,2.7907,2.7931,2.7986,2.7996,2.7951,2.8041,2.8055,2.8117,2.8139,2.8109,2.8114,2.8281,2.8284,2.8285,2.8279,0,0,0,0,0,0,2.7693,2.7713,2.7735,2.7795,2.7816,2.7906,2.79,2.791,2.7941,2.7942,2.8004,2.8013,2.8041,2.8108,2.8122,2.8146,2.8119,2.828,2.8282,2.8285,2.8278,2.8281,2.8284,0,0,0,0,0,2.7686,2.773,2.7736,2.7753,2.7845,2.7908,2.792,2.795,2.7942,2.7965,2.8,2.8011,2.8134,2.8114,2.813,2.8157,2.8278,2.8282,2.8285,2.8277,2.828,2.8283,0,0,0,0,0,0,2.7673,2.7738,2.7746,2.781,2.7853,2.7912,2.7942,2.7953,2.8,2.7999,2.8036,2.8049,2.8109,2.8139,2.8116,2.8215,2.8206,2.8212,2.8194,2.8198,2.8201,2.8194,2.8123,0,0,0,0,0,2.7677,2.7722,2.7777,2.7828,2.7849,2.7891,2.792,2.7939,2.7986,2.8004,2.8044,2.8089,2.8138,2.8169,2.8217,2.8281,2.8295,2.8307,2.831,2.8312,2.8318,2.8353,2.8359,2.8296,2.8296,2.8296,0,0,2.7687,2.7728,2.7755,2.7827,2.7862,2.7908,2.7907,2.7956,2.7991,2.8012,2.8073,2.8103,2.8156,2.8219,2.8249,2.8246,2.8338,2.8316,2.8317,2.8322,2.8357,2.8363,2.8368,2.8298,2.8298,2.8297,0,0,2.7729,2.7764,2.7811,2.7846,2.7899,2.7926,2.7937,2.7994,2.8014,2.8075,2.8092,2.8134,2.8217,2.8254,2.8284,2.8336,2.8348,2.8351,2.8367,2.8401,2.8406,2.8411,2.843,2.8437,2.8356,2.8356,2.8356,0,2.7736,2.7805,2.7834,2.7882,2.7913,2.7932,2.7979,2.8012,2.8078,2.81,2.8094,2.8198,2.8235,2.8307,2.8319,2.8342,2.8357,2.8345,2.8403,2.8408,2.8412,2.8431,2.8439,2.8356,2.8356,2.8356,2.8356,0,2.781,2.7858,2.7889,2.7951,2.7985,2.8033,2.8069,2.81,2.8115,2.8143,2.8205,2.8249,2.8306,2.8324,2.8341,2.8398,2.8394,2.8395,2.8387,2.8418,2.8437,2.8444,2.8356,2.8356,2.8356,2.8356,0,0,2.785,2.7925,2.7936,2.7964,2.8023,2.806,2.8108,2.8162,2.8189,2.8233,2.8274,2.8343,2.8343,2.8377,2.8397,2.8427,2.8466,2.8424,2.8426,2.8431,2.8532,2.8532,2.854,2.8473,2.8474,2.8475,2.8528,0,2.79,2.7986,2.8012,2.8084,2.8128,2.8146,2.8187,2.8228,2.8254,2.8296,2.8326,2.8374,2.8371,2.8391,2.8421,2.8455,2.8487,2.8451,2.8513,2.8515,2.8501,2.855,2.855,2.8598,2.8535,2.8537,2.8538,0,2.7971,2.8015,2.8091,2.8142,2.8162,2.8199,2.825,2.8289,2.8335,2.8352,2.8388,2.8405,2.8456,2.8442,2.8512,2.8487,2.8514,2.8534,2.8536,2.8545,2.8529,2.8561,2.8614,2.8622,2.8549,2.8548,2.8547,0,2.7994,2.8072,2.8127,2.815,2.8211,2.8237,2.8264,2.8308,2.8338,2.8383,2.8403,2.8453,2.8481,2.8519,2.8549,2.8536,2.8617,2.8606,2.8633,2.8633,2.8652,2.8651,2.8711,2.8666,2.8666,2.8665,2.8665,0,2.8049,2.8095,2.8138,2.8172,2.8224,2.8253,2.8303,2.8331,2.837,2.841,2.8428,2.8465,2.8501,2.8543,2.8567,2.8622,2.8634,2.865,2.8656,2.865,2.8648,2.8669,2.8667,2.8667,2.8667,2.8667,2.8666,0,2.8084,2.8115,2.8177,2.8228,2.8242,2.8278,2.8322,2.8356,2.8382,2.8433,2.8446,2.8487,2.8538,2.857,2.8635,2.8651,2.8711,2.8715,2.8695,2.8698,2.8724,2.8722,2.8802,2.8815,2.8759,2.876,2.876,0,2.8118,2.8154,2.8208,2.8236,2.8262,2.8306,2.8337,2.8365,2.8397,2.845,2.8477,2.8528,2.8571,2.865,2.8686,2.8735,2.8742,2.8767,2.875,2.8742,2.8744,2.8742,2.8746,2.877,2.8771,2.8771,2.8771,0,2.8176,2.8188,2.8231,2.8278,2.8314,2.8353,2.8392,2.8413,2.8449,2.8483,2.8533,2.8566,2.863,2.8681,2.8733,2.8761,2.8773,2.8776,2.8785,2.878,2.8767,2.8775,2.8704,2.8775,2.8774,2.8774,2.8774,2.8774,2.8213,2.8245,2.8287,2.8334,2.8366,2.8401,2.8435,2.8464,2.8507,2.8561,2.8575,2.8628,2.8671,2.8741,2.877,2.8812,2.881,2.8823,2.8826,2.883,2.883,2.8758,2.8822,2.8821,2.8821,2.8821,2.8821,0,2.8272,2.8299,2.8341,2.8395,2.8431,2.8436,2.8479,2.8509,2.8555,2.8594,2.8634,2.8692,2.874,2.8779,2.8829,2.8855,2.8861,2.8867,2.8867,2.8873,2.8829,2.8817,2.8861,2.8861,2.8861,2.8861,2.8861,2.8861,2.8307,2.8361,2.8379,2.8448,2.8476,2.8527,2.8551,2.8584,2.8615,2.8678,2.8717,2.8741,2.878,2.8832,2.8876,2.8886,2.8905,2.891,2.8921,2.888,2.8876,2.8872,2.886,2.8913,2.8913,2.8961,2.8961,2.8962]},{"header":{"parameterUnit":"m.s-1","parameterCategory":1,"la1":30.2991,"la2":30.254,"lo1":-89.0895,"lo2":-89.0444,"dy":0.0017,"dx":0.0017,"nx":28,"ny":28,"refTime":"2025-08-13T03:00:00:Z","depth":0,"parameterNumber":3,"parameterNumberName":"V-component_of_WINDS"},"data":[0,0,0,0,0,0,0,0,0,0,0,0,0,0,0,0,0,0,0,0,0,0,0,0,0,0,0,0,0,0,0,0,0,0,0,0,0,0,0,0,0,0,0,0,0,0,0,0,0,0,0,0,0,0,0,0,0,0,1.4953,1.4953,0,1.4868,1.4867,1.4866,1.4755,1.4753,1.4751,1.475,1.4663,1.4662,1.4662,0,0,0,0,0,0,0,0,0,0,0,0,0,1.502,1.502,1.4954,1.4952,1.4951,1.4868,1.4867,1.4866,1.4755,1.4753,1.4751,1.4749,1.4663,1.4662,1.4662,0,0,0,0,0,0,0,0,0,0,0,0,0,1.4969,1.5019,1.4954,1.4886,1.4879,1.4869,1.4867,1.4866,1.4756,1.4753,1.475,1.4748,1.4663,1.4663,1.4662,1.4711,0,0,1.4659,1.4658,0,0,0,0,0,0,0,0,1.4972,1.4967,1.4897,1.4891,1.4883,1.4819,1.4859,1.4814,1.4756,1.4803,1.475,1.4746,1.4717,1.4712,1.4702,1.4707,1.4703,1.4659,1.4658,1.4658,1.4658,0,0,0,0,0,0,0,1.4976,1.497,1.492,1.4896,1.4888,1.486,1.485,1.485,1.4776,1.4798,1.479,1.4781,1.4713,1.4703,1.4699,1.4702,1.4659,1.4658,1.4657,1.4657,1.4742,1.4744,0,0,0,0,0,0,1.4989,1.4973,1.4922,1.4917,1.4922,1.4861,1.4849,1.4843,1.4776,1.4763,1.4784,1.4777,1.4706,1.47,1.4696,1.4748,1.4658,1.4657,1.4656,1.4739,1.4742,1.4745,0,0,0,0,0,0,1.4991,1.4986,1.4926,1.4943,1.4933,1.4863,1.4856,1.4842,1.4832,1.4765,1.4751,1.4787,1.4703,1.4697,1.4707,1.4743,1.4657,1.4656,1.4735,1.474,1.4744,1.4854,0,0,0,0,0,0,1.4994,1.4987,1.5005,1.4944,1.4933,1.494,1.4858,1.4843,1.4831,1.4821,1.4765,1.4753,1.4701,1.4709,1.4707,1.4741,1.4655,1.4732,1.4737,1.4742,1.4847,1.4861,1.4874,0,0,0,0,0,1.4996,1.504,1.5007,1.5001,1.4954,1.4942,1.4935,1.4875,1.4834,1.4852,1.4808,1.4755,1.474,1.4712,1.4707,1.4742,1.4729,1.4736,1.4742,1.4841,1.4859,1.4874,0,0,0,0,0,0,1.5107,1.5031,1.4993,1.5018,1.4988,1.4923,1.4943,1.4896,1.4876,1.4867,1.4792,1.4781,1.4801,1.4772,1.4742,1.4785,1.4727,1.4732,1.4803,1.482,1.4833,1.4839,1.4654,0,0,0,0,0,1.5135,1.5132,1.5065,1.5093,1.508,1.5015,1.5007,1.4963,1.4928,1.4915,1.4872,1.4841,1.4829,1.4822,1.4808,1.4842,1.4828,1.4863,1.4877,1.4889,1.4894,1.491,1.4925,1.4766,1.4766,1.4766,0,0,1.5191,1.5149,1.5152,1.5115,1.5086,1.5084,1.5004,1.5006,1.5004,1.4915,1.4922,1.489,1.485,1.4873,1.488,1.4849,1.4935,1.4897,1.4906,1.4906,1.4918,1.4933,1.4946,1.477,1.4769,1.4769,0,0,1.5293,1.5262,1.5281,1.5254,1.5211,1.5167,1.5172,1.5115,1.509,1.5096,1.5029,1.5025,1.5007,1.498,1.4965,1.5057,1.5006,1.5054,1.5125,1.5141,1.5153,1.5164,1.5196,1.5209,1.506,1.506,1.506,0,1.5369,1.5364,1.5298,1.5303,1.5289,1.5208,1.5227,1.5204,1.5159,1.5151,1.5116,1.509,1.5058,1.5073,1.5095,1.5085,1.5088,1.506,1.5157,1.5167,1.5176,1.5206,1.5218,1.5066,1.5066,1.5065,1.5064,0,1.5459,1.5456,1.5478,1.5435,1.5423,1.5436,1.5372,1.5368,1.5325,1.5284,1.5291,1.5249,1.5224,1.5225,1.5183,1.5234,1.5216,1.517,1.511,1.5198,1.5225,1.5236,1.5075,1.5073,1.5071,1.507,0,0,1.5629,1.5549,1.5558,1.5538,1.5484,1.5481,1.549,1.5465,1.5463,1.5434,1.544,1.5426,1.5383,1.5365,1.5319,1.5334,1.5408,1.5286,1.5284,1.531,1.5461,1.5496,1.551,1.5375,1.5376,1.5378,1.5465,0,1.572,1.5731,1.5672,1.5698,1.5694,1.5617,1.5625,1.5593,1.5556,1.5547,1.5506,1.5497,1.5441,1.543,1.544,1.5397,1.5438,1.539,1.5379,1.5379,1.5391,1.5524,1.5561,1.5645,1.5475,1.5477,1.5478,0,1.5828,1.5805,1.5832,1.5776,1.5772,1.5781,1.5753,1.5746,1.5708,1.568,1.566,1.5607,1.5612,1.5554,1.5559,1.5528,1.552,1.5498,1.55,1.5496,1.5434,1.5524,1.567,1.5683,1.5494,1.5493,1.5491,0,1.5949,1.5925,1.5937,1.5922,1.5858,1.5865,1.5839,1.5798,1.5787,1.5763,1.5755,1.5732,1.5719,1.5703,1.5645,1.5609,1.5657,1.5595,1.5633,1.5635,1.5647,1.5647,1.5793,1.5642,1.5642,1.5642,1.5642,0,1.6057,1.6076,1.599,1.5998,1.6017,1.5948,1.5969,1.5935,1.5899,1.5898,1.583,1.5831,1.5755,1.5748,1.5703,1.5713,1.5708,1.5685,1.5673,1.5691,1.5694,1.5685,1.5678,1.5645,1.5644,1.5644,1.5643,0,1.6195,1.6138,1.6146,1.6085,1.607,1.6087,1.6034,1.6038,1.5996,1.5997,1.5993,1.5928,1.5915,1.5856,1.5829,1.5799,1.5825,1.5801,1.5838,1.583,1.5872,1.5869,1.6017,1.6033,1.5873,1.5875,1.5876,0,1.6268,1.628,1.622,1.6215,1.6192,1.6184,1.6172,1.6106,1.6096,1.6054,1.6063,1.6045,1.6027,1.6011,1.5961,1.594,1.5915,1.5968,1.5911,1.5929,1.5915,1.5915,1.5916,1.5981,1.5983,1.5985,1.5986,0,1.6402,1.6373,1.6359,1.6335,1.6323,1.6301,1.6275,1.6275,1.62,1.6193,1.6179,1.6166,1.6139,1.6122,1.6092,1.6065,1.6013,1.6004,1.6012,1.6031,1.6052,1.6041,1.5871,1.6001,1.6,1.5999,1.5998,1.5997,1.6509,1.6516,1.6475,1.6462,1.6435,1.6412,1.6413,1.6372,1.6359,1.6332,1.6293,1.6285,1.6246,1.6202,1.6178,1.617,1.6141,1.6153,1.6155,1.6159,1.6168,1.6053,1.6165,1.6164,1.6164,1.6163,1.6163,0,1.664,1.6609,1.6598,1.6563,1.6553,1.6505,1.6473,1.6468,1.6461,1.6429,1.6413,1.6397,1.638,1.6329,1.6307,1.6311,1.6287,1.6307,1.6306,1.63,1.6196,1.6191,1.6327,1.6327,1.6327,1.6327,1.6327,1.6327,1.6706,1.6717,1.6683,1.6679,1.6649,1.664,1.6626,1.6605,1.6579,1.6564,1.655,1.6517,1.6477,1.6452,1.6434,1.6419,1.6414,1.6443,1.642,1.6324,1.6308,1.6293,1.6288,1.6442,1.6442,1.6525,1.6526,1.6527]}]]